Location: Bakhuizen
(52.8696°N, 5.4575°E)
Time: 08:12:31
(UTC+00:00)

Cosmos 1743 - Pass Details

Date: 11 May 2021
Orbit: 510 x 525 km, 82.6° (Epoch: 20 June)

Event Time Altitude Azimuth Distance (km) Brightness Sun altitude
Rises 21:06:12 0° 356° (N) 2,654 7.4 -12.1°
Reaches altitude 10° 21:08:33 10° 8° (N) 1,763 6.1 -12.3°
Maximum altitude 21:11:58 29° 70° (ENE) 970 3.9 -12.6°
Enters shadow 21:14:06 18° 119° (ESE) 1,331 4.2 -12.8°
